ONEWEB-0531 (54146 NORAD) Tracking and Keplerian Element Data

This shows tracking and keplerian element data for the satellite.

Feedback or suggestion? Click here.




ElementValue
Catalog54146
NameONEWEB-0531
Epoch Orbit1226
Epoch Day13.71852858
Epoch Year2023
RAAN186.8075
Inclination86.9031
Eccentricity0.001133
Argument of Perigee22.5586
Mean Anonmoly337.6125
Mean Motion14.6890104
Decay Rate1.448E-05
L11 54146U 22138AK 23013.71852858 .00001448 00000+0 24357-3 0 9999
L22 54146 86.9031 186.8075 0011330 22.5586 337.6125 14.68901040 12261



Live tracking and technical data element details for ONEWEB-0531 (NORAD 54146). ONEWEB-0531 can be tracked NOW for your location showing map with azimuth and elevation plus other details from your city location.







IsCatalogInMostPopularTable: catalog: 54146, numindb: 11
Update: records affected: 1



GetName: 54146 ONEWEB-0531

Hit Count: updated at: Fri, 27 Jan 2023 21:21:19 GMT